Location: Saint-Gilles les Bains
(21.0539°S, 55.2287°E)
Time: 17:21:05
(UTC+04:00)

Hubble Space Telescope - Pass Details

Date: 13 December 2023
Orbit: 516 x 519 km, 28.5° (Epoch: 22 February)

Event Time Altitude Azimuth Distance (km) Brightness Sun altitude
Rises 21:00:42 0° 273° (W) 2,629 5.0 -25.6°
Reaches altitude 10° 21:03:01 10° 266° (W) 1,745 4.0 -26.0°
Enters shadow 21:06:38 42° 204° (SSW) 752 1.8 -26.6°
